Location: Wien
(48.2082°N, 16.3738°E)
Time: 20:17:49
(UTC+02:00)

JY1SAT - Pass Details

Date: 18 May 2025
Orbit: 497 x 509 km, 97.5° (Epoch: 12 June)

Event Time Altitude Azimuth Distance (km) Brightness Sun altitude
Exits shadow 21:26:17 - 153° (SSE) 1,796 ? -8.1°
Reaches altitude 10° 21:26:26 10° 152° (SSE) 1,731 ? -8.1°
Maximum altitude 21:30:07 58° 73° (ENE) 603 ? -8.6°
Drops below altitude 10° 21:33:48 10° 354° (N) 1,744 ? -9.0°
Sets 21:35:55 0° 351° (N) 2,634 ? -9.3°
